Time,TemperatureF,DewpointF,PressureIn,WindDirection,WindDirectionDegrees,WindSpeedMPH,WindSpeedGustMPH,Humidity,HourlyPrecipIn,Conditions,Clouds,dailyrainin,SoftwareType,DateUTC
2013-02-05 00:00:00,20.6,16.3,29.88,SSW,207,0.0,0.0,83,0.00,,,0.00,Wunderground v.1.15,2013-02-05 06:00:00,
2013-02-05 00:10:00,20.6,16.3,29.88,SSW,200,0.0,1.0,83,0.00,,,0.00,Wunderground v.1.15,2013-02-05 06:10:00,
2013-02-05 00:20:00,20.8,16.5,29.88,SSW,213,0.0,0.0,83,0.00,,,0.00,Wunderground v.1.15,2013-02-05 06:20:00,
2013-02-05 00:30:00,20.8,16.5,29.87,SSW,203,0.0,0.0,83,0.00,,,0.00,Wunderground v.1.15,2013-02-05 06:30:00,
2013-02-05 00:40:00,20.8,16.5,29.87,SSW,203,0.0,1.0,83,0.00,,,0.00,Wunderground v.1.15,2013-02-05 06:40:00,
2013-02-05 00:50:00,20.6,16.3,29.86,SSW,203,0.0,1.0,83,0.00,,,0.00,Wunderground v.1.15,2013-02-05 06:50:00,
2013-02-05 01:00:00,20.6,16.3,29.86,East,92,0.0,0.0,83,0.00,,,0.00,Wunderground v.1.15,2013-02-05 07:00:00,
2013-02-05 01:10:00,20.8,16.5,29.86,ESE,116,0.0,1.0,83,0.00,,,0.00,Wunderground v.1.15,2013-02-05 07:10:00,
2013-02-05 01:20:00,20.8,16.5,29.86,ESE,117,0.0,1.0,83,0.00,,,0.00,Wunderground v.1.15,2013-02-05 07:20:00,
2013-02-05 01:30:00,21.0,16.6,29.85,ESE,117,0.0,1.0,83,0.00,,,0.00,Wunderground v.1.15,2013-02-05 07:30:00,
2013-02-05 01:40:00,21.1,16.7,29.85,SSW,193,0.0,1.0,83,0.00,,,0.00,Wunderground v.1.15,2013-02-05 07:40:00,
2013-02-05 01:50:00,21.3,16.9,29.85,SW,215,0.0,1.0,83,0.00,,,0.00,Wunderground v.1.15,2013-02-05 07:50:00,
2013-02-05 02:00:00,21.4,17.0,29.85,SSW,209,0.0,1.0,83,0.00,,,0.00,Wunderground v.1.15,2013-02-05 08:00:00,
2013-02-05 02:10:00,21.6,17.2,29.85,SSW,210,0.0,1.0,83,0.00,,,0.00,Wunderground v.1.15,2013-02-05 08:10:00,
2013-02-05 02:20:00,21.9,17.8,29.86,SSW,210,0.0,1.0,84,0.00,,,0.00,Wunderground v.1.15,2013-02-05 08:20:00,
2013-02-05 02:30:00,22.1,17.7,29.85,SW,214,0.0,1.0,83,0.00,,,0.00,Wunderground v.1.15,2013-02-05 08:30:00,
2013-02-05 02:40:00,22.1,17.7,29.85,SSW,208,0.0,1.0,83,0.00,,,0.00,Wunderground v.1.15,2013-02-05 08:40:00,
2013-02-05 02:50:00,22.2,17.8,29.85,SSW,202,1.0,1.0,83,0.00,,,0.00,Wunderground v.1.15,2013-02-05 08:50:00,
2013-02-05 03:00:00,22.2,17.8,29.83,SSW,198,0.0,1.0,83,0.00,,,0.00,Wunderground v.1.15,2013-02-05 09:00:00,
2013-02-05 03:10:00,22.2,17.8,29.83,SSW,198,0.0,1.0,83,0.00,,,0.00,Wunderground v.1.15,2013-02-05 09:10:00,
2013-02-05 03:20:00,22.4,18.0,29.82,SW,215,0.0,1.0,83,0.00,,,0.00,Wunderground v.1.15,2013-02-05 09:20:00,
2013-02-05 03:30:00,22.4,18.0,29.82,SSW,201,1.0,1.0,83,0.00,,,0.00,Wunderground v.1.15,2013-02-05 09:30:00,
2013-02-05 03:40:00,22.5,18.1,29.82,SSW,196,0.0,1.0,83,0.00,,,0.00,Wunderground v.1.15,2013-02-05 09:40:00,
2013-02-05 03:50:00,22.5,18.1,29.81,SW,219,0.0,1.0,83,0.00,,,0.00,Wunderground v.1.15,2013-02-05 09:50:00,
2013-02-05 04:00:00,22.7,18.3,29.82,SW,232,0.0,1.0,83,0.00,,,0.00,Wunderground v.1.15,2013-02-05 10:00:00,
2013-02-05 04:10:00,22.7,18.3,29.82,SSW,213,1.0,1.0,83,0.00,,,0.00,Wunderground v.1.15,2013-02-05 10:10:00,
2013-02-05 04:20:00,22.7,18.3,29.80,SSW,192,1.0,1.0,83,0.00,,,0.00,Wunderground v.1.15,2013-02-05 10:20:00,
2013-02-05 04:30:00,22.5,18.1,29.79,SSW,197,1.0,1.0,83,0.00,,,0.00,Wunderground v.1.15,2013-02-05 10:30:00,
2013-02-05 04:40:00,22.5,18.1,29.79,SSW,206,1.0,1.0,83,0.00,,,0.00,Wunderground v.1.15,2013-02-05 10:40:00,
2013-02-05 04:50:00,22.5,18.1,29.79,South,189,1.0,1.0,83,0.00,,,0.00,Wunderground v.1.15,2013-02-05 10:50:00,
2013-02-05 05:00:00,22.5,18.1,29.79,SW,232,1.0,1.0,83,0.00,,,0.00,Wunderground v.1.15,2013-02-05 11:00:00,
2013-02-05 05:10:00,22.5,18.1,29.79,SW,217,1.0,1.0,83,0.00,,,0.00,Wunderground v.1.15,2013-02-05 11:10:00,
2013-02-05 05:20:00,22.5,18.1,29.79,SSW,209,1.0,2.0,83,0.00,,,0.00,Wunderground v.1.15,2013-02-05 11:20:00,
2013-02-05 05:30:00,22.7,18.3,29.79,SW,227,1.0,1.0,83,0.00,,,0.00,Wunderground v.1.15,2013-02-05 11:30:00,
2013-02-05 05:40:00,22.9,18.5,29.79,SW,214,1.0,1.0,83,0.00,,,0.00,Wunderground v.1.15,2013-02-05 11:40:00,
2013-02-05 05:50:00,23.0,18.9,29.78,South,179,1.0,5.0,84,0.00,,,0.00,Wunderground v.1.15,2013-02-05 11:50:00,
2013-02-05 06:00:00,23.2,19.1,29.78,WSW,239,1.0,1.0,84,0.00,,,0.00,Wunderground v.1.15,2013-02-05 12:00:00,
2013-02-05 06:10:00,23.3,19.2,29.78,SW,217,1.0,2.0,84,0.00,,,0.00,Wunderground v.1.15,2013-02-05 12:10:00,
2013-02-05 06:20:00,23.6,19.5,29.77,SSW,209,2.0,2.0,84,0.00,,,0.00,Wunderground v.1.15,2013-02-05 12:20:00,
2013-02-05 06:30:00,23.9,19.8,29.78,SW,228,1.0,2.0,84,0.00,,,0.00,Wunderground v.1.15,2013-02-05 12:30:00,
2013-02-05 06:40:00,24.4,20.3,29.78,SSW,195,2.0,4.0,84,0.00,,,0.00,Wunderground v.1.15,2013-02-05 12:40:00,
2013-02-05 06:50:00,24.5,20.4,29.78,SW,232,1.0,1.0,84,0.00,,,0.00,Wunderground v.1.15,2013-02-05 12:50:00,
2013-02-05 07:00:00,24.5,20.4,29.78,WSW,240,2.0,2.0,84,0.00,,,0.00,Wunderground v.1.15,2013-02-05 13:00:00,
2013-02-05 07:10:00,24.7,20.6,29.78,WSW,240,1.0,2.0,84,0.00,,,0.00,Wunderground v.1.15,2013-02-05 13:10:00,
2013-02-05 07:20:00,24.7,20.6,29.78,SW,227,1.0,1.0,84,0.00,,,0.00,Wunderground v.1.15,2013-02-05 13:20:00,
2013-02-05 07:30:00,24.7,20.6,29.79,WSW,251,1.0,1.0,84,0.00,,,0.00,Wunderground v.1.15,2013-02-05 13:30:00,
2013-02-05 07:40:00,24.8,20.7,29.79,WSW,247,1.0,1.0,84,0.00,,,0.00,Wunderground v.1.15,2013-02-05 13:40:00,
2013-02-05 07:50:00,25.0,20.8,29.79,SSW,213,1.0,1.0,84,0.00,,,0.00,Wunderground v.1.15,2013-02-05 13:50:00,
2013-02-05 08:00:00,25.1,20.9,29.78,SSW,212,1.0,1.0,84,0.00,,,0.00,Wunderground v.1.15,2013-02-05 14:00:00,
2013-02-05 08:10:00,25.3,21.4,29.78,West,273,1.0,1.0,85,0.00,,,0.00,Wunderground v.1.15,2013-02-05 14:10:00,
2013-02-05 08:20:00,25.6,21.7,29.79,SW,225,1.0,1.0,85,0.00,,,0.00,Wunderground v.1.15,2013-02-05 14:20:00,
2013-02-05 08:30:00,26.1,22.2,29.80,WSW,257,1.0,1.0,85,0.00,,,0.00,Wunderground v.1.15,2013-02-05 14:30:00,
2013-02-05 08:40:00,26.7,22.8,29.80,SW,226,1.0,1.0,85,0.00,,,0.00,Wunderground v.1.15,2013-02-05 14:40:00,
2013-02-05 08:50:00,27.5,23.6,29.79,SW,228,2.0,2.0,85,0.00,,,0.00,Wunderground v.1.15,2013-02-05 14:50:00,
2013-02-05 09:00:00,28.2,24.0,29.80,NW,314,1.0,1.0,84,0.00,,,0.00,Wunderground v.1.15,2013-02-05 15:00:00,
2013-02-05 09:10:00,29.0,24.5,29.80,West,262,1.0,4.0,83,0.00,,,0.00,Wunderground v.1.15,2013-02-05 15:10:00,
2013-02-05 09:20:00,30.7,25.3,29.81,West,267,2.0,2.0,80,0.00,,,0.00,Wunderground v.1.15,2013-02-05 15:20:00,
2013-02-05 09:30:00,31.2,24.8,29.81,West,259,3.0,5.0,77,0.00,,,0.00,Wunderground v.1.15,2013-02-05 15:30:00,
2013-02-05 09:40:00,31.9,25.2,29.81,SW,229,2.0,2.0,76,0.00,,,0.00,Wunderground v.1.15,2013-02-05 15:40:00,
2013-02-05 09:50:00,32.4,25.7,29.82,NW,315,2.0,2.0,76,0.00,,,0.00,Wunderground v.1.15,2013-02-05 15:50:00,
2013-02-05 10:00:00,33.5,26.1,29.82,West,278,2.0,2.0,74,0.00,,,0.00,Wunderground v.1.15,2013-02-05 16:00:00,
2013-02-05 10:10:00,34.9,26.8,29.82,WNW,297,3.0,5.0,72,0.00,,,0.00,Wunderground v.1.15,2013-02-05 16:10:00,
2013-02-05 10:20:00,35.9,27.1,29.82,West,273,4.0,4.0,70,0.00,,,0.00,Wunderground v.1.15,2013-02-05 16:20:00,
2013-02-05 10:30:00,37.0,27.8,29.83,NNW,332,2.0,2.0,69,0.00,,,0.00,Wunderground v.1.15,2013-02-05 16:30:00,
2013-02-05 10:40:00,37.6,28.0,29.83,WNW,302,2.0,8.0,68,0.00,,,0.00,Wunderground v.1.15,2013-02-05 16:40:00,
2013-02-05 10:50:00,38.8,28.4,29.83,West,281,3.0,3.0,66,0.00,,,0.01,Wunderground v.1.15,2013-02-05 16:50:00,
2013-02-05 11:00:00,39.1,28.7,29.83,West,275,2.0,6.0,66,0.00,,,0.01,Wunderground v.1.15,2013-02-05 17:00:00,
2013-02-05 11:10:00,39.5,28.7,29.83,West,277,4.0,4.0,65,0.00,,,0.01,Wunderground v.1.15,2013-02-05 17:10:00,
2013-02-05 11:20:00,40.1,28.9,29.85,WNW,293,3.0,3.0,64,0.00,,,0.01,Wunderground v.1.15,2013-02-05 17:20:00,
2013-02-05 11:30:00,40.6,29.4,29.85,NW,305,4.0,4.0,64,0.00,,,0.02,Wunderground v.1.15,2013-02-05 17:30:00,
2013-02-05 11:40:00,41.5,29.8,29.85,North,355,3.0,7.0,63,0.04,,,0.03,Wunderground v.1.15,2013-02-05 17:40:00,
2013-02-05 11:50:00,41.8,30.1,29.86,NW,311,4.0,10.0,63,0.05,,,0.04,Wunderground v.1.15,2013-02-05 17:50:00,
2013-02-05 12:00:00,41.6,30.3,29.87,NW,319,6.0,9.0,64,0.05,,,0.04,Wunderground v.1.15,2013-02-05 18:00:00,
2013-02-05 12:10:00,41.6,30.3,29.87,North,360,4.0,4.0,64,0.00,,,0.05,Wunderground v.1.15,2013-02-05 18:10:00,
2013-02-05 12:20:00,41.5,30.2,29.88,North,11,4.0,4.0,64,0.00,,,0.05,Wunderground v.1.15,2013-02-05 18:20:00,
2013-02-05 12:30:00,41.5,30.6,29.88,NW,311,3.0,12.0,65,0.00,,,0.06,Wunderground v.1.15,2013-02-05 18:30:00,
2013-02-05 12:40:00,41.5,31.4,29.88,WNW,302,4.0,5.0,67,0.00,,,0.06,Wunderground v.1.15,2013-02-05 18:40:00,
2013-02-05 12:50:00,41.9,31.4,29.88,NNW,339,2.0,2.0,66,0.00,,,0.06,Wunderground v.1.15,2013-02-05 18:50:00,
2013-02-05 13:00:00,41.9,31.4,29.88,NW,317,2.0,4.0,66,0.00,,,0.06,Wunderground v.1.15,2013-02-05 19:00:00,
2013-02-05 13:10:00,42.1,31.6,29.88,NW,313,3.0,3.0,66,0.00,,,0.06,Wunderground v.1.15,2013-02-05 19:10:00,
2013-02-05 13:20:00,42.2,31.3,29.89,NNW,333,2.0,3.0,65,0.00,,,0.06,Wunderground v.1.15,2013-02-05 19:20:00,
2013-02-05 13:30:00,42.3,31.4,29.90,NNW,328,4.0,4.0,65,0.00,,,0.06,Wunderground v.1.15,2013-02-05 19:30:00,
2013-02-05 13:40:00,42.6,31.7,29.90,NNW,329,3.0,3.0,65,0.00,,,0.06,Wunderground v.1.15,2013-02-05 19:40:00,
2013-02-05 13:50:00,42.9,31.9,29.90,NW,321,3.0,3.0,65,0.00,,,0.06,Wunderground v.1.15,2013-02-05 19:50:00,
2013-02-05 14:00:00,43.2,32.2,29.90,WNW,295,3.0,3.0,65,0.00,,,0.06,Wunderground v.1.15,2013-02-05 20:00:00,
2013-02-05 14:10:00,43.3,31.9,29.90,NW,306,3.0,4.0,64,0.00,,,0.07,Wunderground v.1.15,2013-02-05 20:10:00,
2013-02-05 14:20:00,43.5,32.1,29.90,NNW,348,3.0,8.0,64,0.00,,,0.07,Wunderground v.1.15,2013-02-05 20:20:00,
2013-02-05 14:30:00,42.8,31.8,29.91,NW,323,2.0,2.0,65,0.00,,,0.07,Wunderground v.1.15,2013-02-05 20:30:00,
2013-02-05 14:40:00,42.8,31.8,29.91,WNW,292,2.0,4.0,65,0.00,,,0.07,Wunderground v.1.15,2013-02-05 20:40:00,
2013-02-05 14:50:00,43.3,32.3,29.91,North,350,2.0,3.0,65,0.00,,,0.07,Wunderground v.1.15,2013-02-05 20:50:00,
2013-02-05 15:00:00,43.3,32.3,29.91,NW,311,4.0,5.0,65,0.00,,,0.07,Wunderground v.1.15,2013-02-05 21:00:00,
2013-02-05 15:10:00,43.5,32.5,29.91,NNW,333,3.0,3.0,65,0.00,,,0.07,Wunderground v.1.15,2013-02-05 21:10:00,
2013-02-05 15:20:00,43.3,32.3,29.92,NNW,341,1.0,1.0,65,0.00,,,0.07,Wunderground v.1.15,2013-02-05 21:20:00,
2013-02-05 15:30:00,43.1,32.5,29.92,NW,323,1.0,1.0,66,0.00,,,0.07,Wunderground v.1.15,2013-02-05 21:30:00,
2013-02-05 15:40:00,42.5,31.2,29.92,NNW,338,2.0,3.0,64,0.00,,,0.07,Wunderground v.1.15,2013-02-05 21:40:00,
2013-02-05 15:50:00,42.2,30.9,29.92,NNW,327,2.0,2.0,64,0.00,,,0.07,Wunderground v.1.15,2013-02-05 21:50:00,
2013-02-05 16:00:00,43.1,31.7,29.93,NW,323,3.0,3.0,64,0.00,,,0.07,Wunderground v.1.15,2013-02-05 22:00:00,
2013-02-05 16:10:00,43.2,31.8,29.93,North,355,2.0,4.0,64,0.00,,,0.07,Wunderground v.1.15,2013-02-05 22:10:00,
2013-02-05 16:20:00,42.2,31.3,29.94,North,355,4.0,4.0,65,0.00,,,0.07,Wunderground v.1.15,2013-02-05 22:20:00,
2013-02-05 16:30:00,41.6,31.4,29.95,NNW,328,2.0,2.0,67,0.00,,,0.07,Wunderground v.1.15,2013-02-05 22:30:00,
2013-02-05 16:40:00,41.2,31.1,29.95,NNE,19,1.0,3.0,67,0.00,,,0.07,Wunderground v.1.15,2013-02-05 22:40:00,
2013-02-05 16:50:00,41.1,31.0,29.96,NE,34,1.0,1.0,67,0.00,,,0.07,Wunderground v.1.15,2013-02-05 22:50:00,
2013-02-05 17:00:00,40.8,30.7,29.97,NNE,24,1.0,1.0,67,0.00,,,0.07,Wunderground v.1.15,2013-02-05 23:00:00,
2013-02-05 17:10:00,40.3,30.2,29.97,NNW,346,1.0,1.0,67,0.00,,,0.07,Wunderground v.1.15,2013-02-05 23:10:00,
2013-02-05 17:20:00,40.1,30.0,29.97,NNW,346,0.0,1.0,67,0.00,,,0.07,Wunderground v.1.15,2013-02-05 23:20:00,
2013-02-05 17:30:00,39.8,30.1,29.97,NNW,346,0.0,1.0,68,0.00,,,0.07,Wunderground v.1.15,2013-02-05 23:30:00,
2013-02-05 17:40:00,39.5,29.8,29.97,NNW,346,0.0,1.0,68,0.00,,,0.07,Wunderground v.1.15,2013-02-05 23:40:00,
2013-02-05 17:50:00,39.2,29.5,29.97,NNW,346,0.0,1.0,68,0.00,,,0.07,Wunderground v.1.15,2013-02-05 23:50:00,
2013-02-05 18:00:00,38.9,29.2,29.98,NNW,346,0.0,1.0,68,0.00,,,0.07,Wunderground v.1.15,2013-02-06 00:00:00,
2013-02-05 18:10:00,38.5,29.2,29.98,NNW,346,0.0,1.0,69,0.00,,,0.07,Wunderground v.1.15,2013-02-06 00:10:00,
2013-02-05 18:20:00,38.0,28.7,29.98,NNW,346,0.0,1.0,69,0.00,,,0.07,Wunderground v.1.15,2013-02-06 00:20:00,
2013-02-05 18:30:00,37.5,28.2,29.98,NNW,346,0.0,1.0,69,0.00,,,0.07,Wunderground v.1.15,2013-02-06 00:30:00,
2013-02-05 18:40:00,37.0,28.1,29.98,NNW,346,0.0,1.0,70,0.00,,,0.07,Wunderground v.1.15,2013-02-06 00:40:00,
2013-02-05 18:50:00,36.6,27.7,29.98,NNW,346,0.0,1.0,70,0.00,,,0.07,Wunderground v.1.15,2013-02-06 00:50:00,
2013-02-05 19:00:00,36.0,28.2,29.99,NNW,346,0.0,1.0,73,0.00,,,0.07,Wunderground v.1.15,2013-02-06 01:00:00,
2013-02-05 19:10:00,35.6,28.1,29.99,NNW,346,0.0,1.0,74,0.00,,,0.07,Wunderground v.1.15,2013-02-06 01:10:00,
2013-02-05 19:20:00,35.2,28.1,30.00,NNW,346,0.0,1.0,75,0.00,,,0.07,Wunderground v.1.15,2013-02-06 01:20:00,
2013-02-05 19:30:00,34.7,27.6,30.01,NNW,346,0.0,1.0,75,0.00,,,0.07,Wunderground v.1.15,2013-02-06 01:30:00,
2013-02-05 19:40:00,34.4,27.6,30.01,NNW,346,0.0,1.0,76,0.00,,,0.07,Wunderground v.1.15,2013-02-06 01:40:00,
2013-02-05 19:50:00,34.0,27.5,30.01,NNW,346,0.0,1.0,77,0.00,,,0.07,Wunderground v.1.15,2013-02-06 01:50:00,
2013-02-05 20:00:00,33.7,27.9,30.02,NNW,346,0.0,1.0,79,0.00,,,0.07,Wunderground v.1.15,2013-02-06 02:00:00,
2013-02-05 20:10:00,33.5,28.0,30.02,NNW,346,0.0,1.0,80,0.00,,,0.07,Wunderground v.1.15,2013-02-06 02:10:00,
2013-02-05 20:20:00,33.4,27.9,30.01,NNW,346,0.0,1.0,80,0.00,,,0.07,Wunderground v.1.15,2013-02-06 02:20:00,
2013-02-05 20:30:00,33.2,27.7,30.03,NNW,346,0.0,1.0,80,0.00,,,0.07,Wunderground v.1.15,2013-02-06 02:30:00,
2013-02-05 20:40:00,33.1,27.9,30.03,NNW,346,0.0,1.0,81,0.00,,,0.07,Wunderground v.1.15,2013-02-06 02:40:00,
2013-02-05 20:50:00,32.8,27.6,30.03,NNW,346,0.0,1.0,81,0.00,,,0.07,Wunderground v.1.15,2013-02-06 02:50:00,
2013-02-05 21:00:00,32.5,27.3,30.03,NNW,346,0.0,1.0,81,0.00,,,0.07,Wunderground v.1.15,2013-02-06 03:00:00,
2013-02-05 21:10:00,32.4,27.2,30.03,NNW,346,0.0,1.0,81,0.00,,,0.07,Wunderground v.1.15,2013-02-06 03:10:00,
2013-02-05 21:20:00,32.1,27.2,30.04,NNW,346,0.0,1.0,82,0.00,,,0.07,Wunderground v.1.15,2013-02-06 03:20:00,
2013-02-05 21:30:00,31.9,27.0,30.04,NNW,346,0.0,1.0,82,0.00,,,0.07,Wunderground v.1.15,2013-02-06 03:30:00,
2013-02-05 21:40:00,31.8,26.9,30.04,NNW,346,0.0,1.0,82,0.00,,,0.07,Wunderground v.1.15,2013-02-06 03:40:00,
2013-02-05 21:50:00,31.6,27.0,30.05,NNW,346,0.0,1.0,83,0.00,,,0.07,Wunderground v.1.15,2013-02-06 03:50:00,
2013-02-05 22:00:00,31.5,26.9,30.06,NNW,346,0.0,1.0,83,0.00,,,0.07,Wunderground v.1.15,2013-02-06 04:00:00,
2013-02-05 22:10:00,31.3,26.7,30.06,NNW,346,0.0,1.0,83,0.00,,,0.07,Wunderground v.1.15,2013-02-06 04:10:00,
2013-02-05 22:20:00,31.2,26.6,30.06,NNW,346,0.0,1.0,83,0.00,,,0.07,Wunderground v.1.15,2013-02-06 04:20:00,
2013-02-05 22:30:00,30.9,26.3,30.05,NNW,346,0.0,1.0,83,0.00,,,0.07,Wunderground v.1.15,2013-02-06 04:30:00,
2013-02-05 22:40:00,30.6,26.1,30.05,NNW,346,0.0,1.0,83,0.00,,,0.07,Wunderground v.1.15,2013-02-06 04:40:00,
2013-02-05 22:50:00,30.3,25.8,30.06,NNW,346,0.0,1.0,83,0.00,,,0.07,Wunderground v.1.15,2013-02-06 04:50:00,
2013-02-05 23:00:00,30.0,25.8,30.06,NNW,346,0.0,1.0,84,0.00,,,0.07,Wunderground v.1.15,2013-02-06 05:00:00,
2013-02-05 23:10:00,29.8,25.6,30.06,NNW,346,0.0,1.0,84,0.00,,,0.07,Wunderground v.1.15,2013-02-06 05:10:00,
2013-02-05 23:20:00,29.8,25.6,30.06,NNW,346,0.0,1.0,84,0.00,,,0.07,Wunderground v.1.15,2013-02-06 05:20:00,
2013-02-05 23:30:00,29.8,25.6,30.06,NNW,346,0.0,1.0,84,0.00,,,0.07,Wunderground v.1.15,2013-02-06 05:30:00,
2013-02-05 23:40:00,29.7,25.5,30.06,NNW,346,0.0,1.0,84,0.00,,,0.07,Wunderground v.1.15,2013-02-06 05:40:00,
2013-02-05 23:50:00,29.5,25.3,30.07,NNW,346,0.0,1.0,84,0.00,,,0.07,Wunderground v.1.15,2013-02-06 05:50:00,